Tracking 29892 objects as of 21-Nov-2024
HD Live streaming from Space Station
objects crossing your sky now

GORIZONT 1

Track GORIZONT 1 now!
GORIZONT 1 is classified as:


NORAD ID: 11158
Int'l Code: 1978-118A
Perigee: 22,299.8 km
Apogee: 49,281.4 km
Inclination: 11.6 °
Period: 1,435.9 minutes
Semi major axis: 42161 km
RCS: 2.5118 m2 (large)
Launch date: December 19, 1978
Source: Commonwealth of Independent States (former USSR) (CIS)
Launch site: TYURATAM MISSILE AND SPACE COMPLEX (TTMTR)
Your satellite tracking list
Your tracking list is empty




NASA's NSSDC Master Catalog

Two Line Element Set (TLE):
1 11158U 78118A   24325.12248247  .00000030  00000-0  00000-0 0  9990
2 11158  11.6377 172.1709 3199780 329.5540  15.3208  1.00282893117185
Source of the keplerian elements: AFSPC